Location: Cedar Springs
(43.2230°N, 85.5510°W)
Time: 20:18:27
(UTC-04:00)

Cosmos 2278 Rocket - Visible Passes

Search period start: 24 June 2017 00:00
Search period end: 04 July 2017 00:00
Orbit: 843 x 844 km, 71.0° (Epoch: 24 June)

Date Brightness Start Highest point End Pass type
(mag) Time Alt. Az. Time Alt. Az. Time Alt. Az.
24 Jun 4.0 01:03:25 16° ESE 01:03:41 16° E 01:07:00 10° ENE visible
24 Jun 2.2 02:45:15 44° SW 02:47:04 74° WNW 02:52:45 10° NNE visible
24 Jun 4.4 04:29:13 10° WNW 04:32:11 14° NW 04:35:09 10° NNW visible
25 Jun 4.0 00:49:02 15° E 00:49:11 15° E 00:52:18 10° ENE visible
25 Jun 2.2 02:30:51 47° SW 02:32:31 77° WNW 02:38:12 10° NNE visible
25 Jun 4.4 04:14:29 10° WNW 04:17:35 15° NW 04:20:42 10° N visible
26 Jun 4.1 00:34:37 14° E 00:34:40 14° E 00:37:36 10° ENE visible
26 Jun 2.2 02:16:27 50° SW 02:17:58 80° WNW 02:23:40 10° NNE visible
26 Jun 4.4 03:59:46 10° W 04:03:00 15° NW 04:06:15 10° N visible
27 Jun 4.1 00:20:10 14° E 00:20:10 14° E 00:22:53 10° ENE visible
27 Jun 2.1 02:01:59 52° SSW 02:03:25 84° WNW 02:09:07 10° NNE visible
27 Jun 4.4 03:45:03 10° W 03:48:24 16° NW 03:51:47 10° N visible
28 Jun 4.1 00:05:40 13° E 00:05:40 13° E 00:08:09 10° ENE visible
28 Jun 2.1 01:47:29 54° SSW 01:48:52 87° WNW 01:54:34 10° NNE visible
28 Jun 4.4 03:30:21 10° W 03:33:49 16° NW 03:37:19 10° N visible
28 Jun 4.1 23:51:08 12° E 23:51:08 12° E 23:53:22 10° ENE visible
29 Jun 2.1 01:32:57 54° SSW 01:34:19 90° ESE 01:40:01 10° NNE visible
29 Jun 4.4 03:15:38 10° W 03:19:13 17° NW 03:22:50 10° N visible
29 Jun 4.2 23:36:33 12° E 23:36:38 12° E 23:38:33 10° ENE visible
30 Jun 2.1 01:18:22 53° SSW 01:19:47 87° ESE 01:25:28 10° NNE visible
30 Jun 4.4 03:00:57 10° W 03:04:38 17° NW 03:08:21 10° N visible
30 Jun 4.2 23:21:55 11° E 23:22:07 11° E 23:23:40 10° E visible
01 Jul 2.1 01:03:44 51° SSW 01:05:14 83° ESE 01:10:56 10° NNE visible
01 Jul 4.4 02:46:15 10° W 02:50:04 18° NW 02:53:52 10° N visible
01 Jul 4.2 23:07:14 10° E 23:07:36 10° E 23:08:40 10° E visible
02 Jul 2.1 00:49:02 48° S 00:50:42 80° ESE 00:56:23 10° NNE visible
02 Jul 4.4 02:31:34 10° W 02:35:28 19° NW 02:39:23 10° N visible
03 Jul 2.1 00:34:16 44° S 00:36:09 77° ESE 00:41:49 10° NNE visible
03 Jul 4.4 02:16:53 10° W 02:20:53 19° NW 02:24:55 10° N visible
